GW2240 Weather Reports


Display with metric or nautical units.
time (UTC)temp
F
wind
direction
speed
MPH
gust
MPH
rain 1hr
in
rain 24hr
in
rain mn
in
humidity
%
barometer
mb
20260502220011 75 21 0.0 5.0 0.00 0.35 0.00 49 1018.6
20260502214512 75 292 0.0 5.0 0.00 0.49 0.00 50 1018.6
20260502213025 75 20 0.0 3.0 0.00 0.49 0.00 51 1018.7
20260502211508 76 9 0.0 5.0 0.00 0.49 0.00 51 1018.7
20260502210009 75 344 1.0 4.0 0.00 0.49 0.00 49 1019.0
20260502204506 76 325 0.0 4.0 0.00 0.63 0.00 53 1019.0
20260502203005 77 303 1.0 6.0 0.00 0.63 0.00 51 1019.3
20260502201507 76 339 0.0 10.0 0.00 0.63 0.00 52 1019.3
20260502200004 76 247 1.0 5.0 0.00 0.63 0.00 51 1019.4
20260502194503 76 346 0.0 7.0 0.00 0.70 0.00 54 1019.6
20260502193002 76 16 0.0 7.0 0.00 0.70 0.00 56 1019.9
20260502191502 76 354 0.0 6.0 0.00 0.70 0.00 53 1020.0
20260502190101 75 14 0.0 8.0 0.00 0.70 0.00 54 1020.2
20260502184604 75 332 2.0 7.0 0.00 0.72 0.00 49 1020.3
20260502183058 74 194 0.0 7.0 0.00 0.72 0.00 54 1020.5
20260502181614 74 348 0.0 6.0 0.00 0.72 0.00 55 1020.7
20260502163039 69 304 1.0 8.0 0.00 0.87 0.00 64 1021.2
20260502161534 69 342 1.0 7.0 0.00 0.87 0.00 64 1021.1
20260502151518 64 23 0.0 7.0 0.00 1.22 0.00 81 1020.8
20260502140105 55 15 0.0 5.0 0.00 1.57 0.00 96 1020.7
20260502123048 52 4 0.0 3.0 0.00 2.96 0.00 96 1019.3
20260502121548 52 30 0.0 1.0 0.00 2.96 0.00 96 1019.1
20260502114550 52 10 0.0 2.0 0.00 3.27 0.00 96 1018.8
20260502113043 52 8 0.0 2.0 0.00 3.27 0.00 96 1018.7
20260502111543 52 9 0.0 1.0 0.00 3.27 0.00 96 1018.6
20260502110043 52 21 0.0 2.0 0.00 3.27 0.00 96 1018.3
20260502104540 52 358 0.0 2.0 0.00 3.42 0.00 96 1018.3
20260502103038 52 5 0.0 2.0 0.00 3.42 0.00 96 1018.2
20260502101543 52 23 0.0 2.0 0.00 3.42 0.00 96 1018.0
20260502091527 53 2 0.0 2.0 0.00 3.67 0.00 96 1016.9
20260502071518 54 350 0.0 4.0 0.00 3.88 0.00 96 1016.4
20260502070017 54 352 0.0 3.0 0.00 3.88 0.00 96 1016.7
20260502064534 54 30 0.0 4.0 0.00 3.94 0.00 96 1016.3
20260502063017 54 360 1.0 6.0 0.00 3.94 0.00 96 1016.2
20260502061514 54 27 1.0 5.0 0.00 3.94 0.00 96 1016.1
20260502060014 54 349 2.0 5.0 0.00 3.94 0.00 96 1016.2
20260502054512 54 35 0.0 4.0 0.00 4.01 0.00 96 1016.1
20260502053010 55 38 2.0 6.0 0.00 4.01 0.00 96 1016.4
20260502051508 55 29 0.0 6.0 0.00 4.01 0.00 96 1016.2
20260502050014 55 346 0.0 8.0 0.00 4.01 0.00 96 1016.2
20260502044508 55 310 1.0 8.0 0.00 4.05 4.01 96 1016.2
20260502043004 55 6 1.0 7.0 0.00 4.05 4.01 96 1016.0
20260502041503 55 13 1.0 7.0 0.00 4.05 4.01 96 1016.1
20260502040001 56 336 2.0 7.0 0.00 4.05 4.01 96 1016.2
20260502034600 56 11 1.0 5.0 0.00 4.05 4.01 96 1016.2
20260502033100 56 352 1.0 5.0 0.00 4.05 4.01 96 1016.3
20260502031626 55 5 0.0 6.0 0.00 4.05 4.01 96 1015.9
20260502030055 56 348 0.0 8.0 0.00 4.05 4.01 96 1015.6
20260502024552 56 356 1.0 6.0 0.01 4.05 4.01 96 1014.8
20260502023054 56 26 1.0 5.0 0.02 4.05 4.01 96 1014.5
20260502021548 56 11 1.0 4.0 0.03 4.05 4.01 96 1014.7
20260502020105 56 14 1.0 7.0 0.03 4.04 4.01 96 1014.6
20260502014551 57 334 1.0 6.0 0.04 4.04 4.01 96 1014.4
20260502013042 57 42 3.0 8.0 0.05 4.03 4.00 96 1013.7
20260502011541 57 3 0.0 4.0 0.05 4.01 3.99 96 1014.5
20260502010038 58 332 1.0 10.0 0.07 4.01 3.98 96 1013.5
20260502004536 59 35 2.0 8.0 0.10 4.00 3.97 96 1012.7
20260502003034 59 6 2.0 7.0 0.10 3.98 3.95 96 1013.4
20260502001555 59 1 1.0 5.0 0.13 3.96 3.93 96 1013.2
20260502000035 59 19 0.0 3.0 0.15 3.94 3.91 96 1012.7
20260501234532 59 2 0.0 2.0 0.19 3.90 3.87 96 1013.1
20260501233032 59 23 0.0 2.0 0.17 3.88 3.85 96 1012.7
20260501231534 59 296 0.0 0.0 0.12 3.83 3.80 96 1012.0
20260501230034 60 5 0.0 3.0 0.09 3.79 3.76 96 1012.1
20260501224530 60 119 0.0 8.0 0.04 3.71 3.68 96 1010.5
20260501223028 60 290 0.0 7.0 0.09 3.71 3.68 96 1010.0
20260501221527 60 297 0.0 8.0 0.13 3.71 3.68 96 1010.7